Regional Weather Roundup
Issued by NWS

Home | Current Version | Previous Version | Graphics & Text | Print | Product List | Glossary On
Versions: 1 2 3 4 5 6 7 8 9 10 11 12 13 14 15 16 17 18 19 20 21 22 23 24 25 26 27 28 29 30 31 32 33 34 35 36 37 38 39 40 41 42 43 44 45 46 47 48 49 50
677
ASUS44 KJAN 190903
RWRMS

MISSISSIPPI HOURLY WEATHER ROUNDUP
NATIONAL WEATHER SERVICE JACKSON MS
400 AM CDT SUN OCT 19 2014

NOTE: "FAIR: INDICATES FEW OR NO CLOUDS BELOW 12,000 FEET WITH NO
SIGNIFICANT WEATHER AND/OR OBSTRUCTIONS TO VISIBILITY.

MSZ001>002-007>008-010>013-018>021-025>028-034>036-191000-
NORTHWEST MISSISSIPPI

CITY           SKY/WX    TMP DP  RH WIND       PRES   REMARKS
CLARKSDALE     FAIR      50  48  93 NE8       30.17F
CLEVELAND      FAIR      52  49  89 NE7       30.15S
GREENWOOD      CLEAR     47  45  93 NE6       30.15S
GREENVILLE     CLEAR     50  47  89 NE5       30.15S
GRENADA          N/A    N/A N/A N/A MISG        N/A
OLIVE BRANCH   CLEAR     46  46 100 CALM      30.18S
OXFORD         FAIR      46  45  93 NE3       30.18S
TUNICA         MOSUNNY   48  45  87 CALM      30.18S
$$

MSZ003>006-009-014>017-022>024-029>033-037>039-191000-
NORTHEAST MISSISSIPPI

CITY           SKY/WX    TMP DP  RH WIND       PRES   REMARKS
COLUMBUS AFB   PTCLDY    46  45  95 W1        30.15S FOG
CORINTH          N/A     45  43  93 CALM        N/A
GOLDN TRIANGLE PTCLDY    46  43  87 NW3       30.14S
TUPELO         MOCLDY    48  45  89 NE6       30.16S
$$

MSZ040-058-191000-
CENTRAL MISSISSIPPI

CITY           SKY/WX    TMP DP  RH WIND       PRES   REMARKS
JACKSON INTL   CLEAR     54  49  83 NE8       30.12F
JACKSON HAWKNS CLEAR     55  48  77 VRB5      30.12F
MERIDIAN KEY   CLEAR     50  47  89 N5        30.12S
MERIDIAN NAS   CLEAR     50  47  89 CALM      30.13S
RAYMOND        FAIR      52  46  82 MISG      30.12F
VICKSBURG      CLEAR     55  50  83 NE8       30.13S
$$

MSZ059>079-191000-
SOUTH MISSISSIPPI

CITY           SKY/WX    TMP DP  RH WIND       PRES   REMARKS
BROOKHAVEN     FAIR      55  52  88 NE6       30.11S
HATTIESBURG    CLEAR     57  51  80 N5        30.10S
MCCOMB         CLEAR     57  51  80 NE6       30.08S
NATCHEZ        CLEAR     55  48  76 NE6       30.11R
PINE BELT      CLEAR     54  48  82 N8        30.10S
$$

MSZ080>082-191000-
COASTAL MISSISSIPPI

CITY           SKY/WX    TMP DP  RH WIND       PRES   REMARKS
BILOXI         CLEAR     60  53  76 NE7       30.06R
PASCAGOULA     CLEAR     55  51  86 CALM      30.06S
GULFPORT       CLEAR     60  53  77 NE3       30.06R
$$



USA.gov is the U.S. government's official web portal to all federal, state and local government web resources and services.